Location: Caurel
(49.3039°N, 4.1530°E)
Time: 23:07:57
(UTC+00:00)

Daily predictions for brighter satellites

Satellite Brightness Start Highest point End
(mag) Time Altitude Azimuth Time Altitude Azimuth Time Altitude Azimuth
Cosmos 2360 Rocket 3.5 20:25:06 10° NNW 20:30:05 30° NE 20:35:03 10° ESE
IRS-1A Rocket 4.3 20:25:02 10° SSE 20:30:32 84° ENE 20:36:05 10° NNW
Meteor 2-12 Rocket 4.5 20:26:36 10° S 20:32:43 74° E 20:38:53 10° NNE
MOS 1 Rocket 4.0 20:27:36 10° SE 20:32:49 51° ENE 20:37:57 10° N
Cosmos 2333 Rocket 3.5 20:29:46 10° NNW 20:34:51 31° NE 20:39:54 10° ESE
Cosmos 2285 Rocket 4.3 20:28:32 10° SSW 20:34:52 77° WNW 20:41:19 10° NNE
Cosmos 841 Rocket 4.1 20:30:12 10° NNW 20:35:17 46° ENE 20:40:20 10° SE
Atlas Centaur 2 4.3 20:32:05 10° SW 20:37:28 19° S 20:42:49 10° SE
Cosmos 1441 Rocket 3.1 20:34:17 10° N 20:37:52 63° ENE 20:41:27 10° SSE
SL-16 R/B 2.6 20:32:27 10° NNW 20:38:05 57° ENE 20:43:39 10° SE
ERS-1 Rocket 3.0 20:34:17 10° SSE 20:39:18 81° ENE 20:44:22 10° NNW
Cosmos 1763 Rocket 3.9 20:34:14 10° NNW 20:39:26 63° WSW 20:44:33 10° S
Cosmos 2369 4.4 20:34:03 10° NW 20:39:37 54° WSW 20:45:10 10° S
Resurs 01 Rocket 4.0 20:38:08 10° SW 20:41:25 20° W 20:44:43 10° NW
RESURS DK-1 3.4 20:37:41 10° NNW 20:41:26 35° NE 20:45:12 10° ESE
In-Cosmos 22 4.5 20:37:48 10° SSE 20:43:15 51° E 20:48:34 10° NNE
Cosmos 2082 Rocket 2.4 20:37:52 10° SSW 20:43:36 79° WNW 20:49:20 10° NNE
Spot 2 Rocket 3.6 20:38:53 10° SSE 20:43:54 68° ENE 20:48:58 10° N
Cosmos 1933 Rocket 3.7 20:41:23 10° NNW 20:45:50 80° W 20:50:16 10° S
Cosmos 1470 2.9 20:42:47 10° NNW 20:46:27 66° W 20:50:06 10° S
SPOT 5 3.3 20:44:25 10° S 20:48:37 52° W 20:52:55 10° NNW
Cosmos 1300 3.8 20:46:51 10° NNE 20:49:57 27° ENE 20:52:53 11° SE
Cosmos 1908 3.1 20:50:03 10° NNW 20:53:40 79° W 20:57:15 10° S
Cosmos 1346 Rocket 3.9 20:55:01 10° N 20:58:29 30° ENE 21:01:35 12° SE
Cosmos 1674 3.9 20:57:17 10° SW 21:00:33 38° WNW 21:03:50 10° N
ATLAS 2AS CENTAUR R/B 3.2 20:54:05 10° NW 21:00:51 54° NE 21:07:22 10° ESE
Meteor 1-22 Rocket 4.3 20:57:04 10° N 21:02:41 77° ENE 21:08:26 10° SSE
Ariane Rocket 3.1 21:03:20 10° SSE 21:08:25 81° WSW 21:13:34 10° NNW
Cosmos 1758 3.6 21:05:56 10° N 21:09:45 50° ENE 21:12:54 14° SSE
Meteor 1-4 Rocket 4.4 21:09:50 10° ESE 21:10:46 11° E 21:11:51 10° ENE
Cosmos 1356 Rocket 4.2 21:09:22 13° SSE 21:12:43 36° E 21:16:36 10° NNE
COSMOS 2406 4.0 21:11:14 10° SW 21:16:54 58° WNW 21:22:35 10° NNE
SPOT 3 Rocket 3.7 21:12:15 10° S 21:17:23 75° WSW 21:22:35 10° NNW
Cosmos 1850 Rocket 4.4 21:13:40 10° S 21:18:35 43° ESE 21:23:30 10° NE
Meteor 1-13 Rocket 4.4 21:13:38 10° SSW 21:19:27 79° WNW 21:25:10 10° N
Cosmos 1707 Rocket 4.1 21:16:10 13° SSE 21:19:50 44° E 21:24:04 10° NNE
SL-27 R/B 3.5 21:19:33 17° SE 21:20:18 19° ESE 21:22:22 10° NE
ARIANE 5 R/B 4.1 21:17:31 11° ESE 21:20:51 25° ENE 21:24:25 10° N
Cosmos 1980 Rocket 4.3 21:17:56 10° NW 21:22:00 20° W 21:26:02 10° SW
Cosmos 2322 Rocket 2.3 21:17:01 10° NNW 21:22:42 76° ENE 21:27:28 15° SE
S3M 4.2 21:16:21 10° NNW 21:22:45 77° W 21:29:03 10° S
Spot 1 4.3 21:19:35 10° NNE 21:24:00 60° ESE 21:28:33 11° S
Cosmos 1655 Rocket 4.1 21:23:18 10° S 21:29:40 74° E 21:36:04 10° NNE
SJ 16-02 2.5 21:28:53 17° SE 21:31:07 25° E 21:34:41 10° NE
Landsat 5 3.4 21:27:28 10° NNE 21:31:25 66° ESE 21:35:02 13° S
Cosmos 2278 4.3 21:25:58 10° NW 21:31:30 51° WSW 21:36:25 13° S
Cosmos 1741 Rocket 4.1 21:31:56 10° S 21:37:05 58° ESE 21:42:18 10° NNE
Tiangong 0.2 21:36:34 10° SW 21:37:28 11° SSW 21:37:28 11° SSW
USA 281 3.5 21:32:45 14° SE 21:38:26 60° ENE 21:44:54 10° NNW
Cosmos 2266 Rocket 4.3 21:33:08 10° SSW 21:39:25 70° WNW 21:45:51 10° N
Cosmos 1400 Rocket 3.1 21:35:45 10° SSW 21:39:37 65° WNW 21:43:28 10° N
COSMOS 2428 4.2 21:35:43 10° NNW 21:40:36 28° NE 21:45:29 10° ESE
Cosmos 1733 Rocket 3.0 21:36:36 10° N 21:41:02 86° E 21:44:16 18° S
MetOp-A 4.1 21:37:25 16° SSE 21:41:39 84° WSW 21:46:57 10° NNW
Okean 3 3.8 21:39:26 19° SSE 21:42:09 48° E 21:46:11 10° NNE
GP-B 4.4 21:38:32 10° NNE 21:42:19 27° E 21:44:46 17° SE
Terra 3.2 21:38:31 10° SSW 21:42:44 32° W 21:46:59 10° NNW
Cosmos 968 Rocket 3.7 21:41:01 15° S 21:45:08 50° ESE 21:50:08 10° NNE
Cosmos 1814 Rocket 4.3 21:40:52 10° NNW 21:46:08 63° ENE 21:50:00 18° SE
SL-4 R/B 2.4 21:43:20 10° W 21:47:13 63° N 21:51:21 10° ENE
Cosmos 2228 Rocket 3.2 21:44:42 12° S 21:48:52 85° W 21:53:29 10° N
Cosmos 2219 Rocket 2.6 21:45:48 10° NNW 21:51:24 56° NE 21:55:47 17° SE
Cosmos 1908 Rocket 4.3 21:48:12 10° N 21:52:19 39° ENE 21:54:53 20° SE
Cosmos 1315 Rocket 3.6 21:51:04 22° SE 21:53:00 35° E 21:56:40 10° NNE
ATLAS CENTAUR R/B 1.2 21:52:14 19° S 21:54:25 46° ESE 21:57:52 10° NE
Meteor 2-10 Rocket 4.2 21:50:31 10° NNW 21:56:00 53° W 22:00:34 14° SSW
SeaSat 1 4.5 21:53:04 10° SSW 21:56:26 18° WSW 21:59:48 10° WNW
Cosmos 1953 2.7 21:55:08 10° N 21:58:51 46° ENE 22:00:51 24° SE
Cosmos 1455 2.6 21:58:43 10° N 22:02:05 42° ENE 22:03:41 25° SE
H-2A R/B 3.5 21:59:30 18° SE 22:02:10 36° ENE 22:06:05 10° N
Cosmos 1242 Rocket 3.6 22:04:20 19° E 22:04:31 19° E 22:06:33 10° NE
USA 234 3.7 21:59:29 10° ENE 22:05:58 66° NNW 22:12:26 10° WSW
Okean 1-7 3.2 22:04:58 24° SSE 22:07:25 56° E 22:11:40 10° NNE
BREEZE-M DEB (TANK) 2.9 22:06:20 10° W 22:08:24 34° SSW 22:09:08 29° SSE
CZ-2C R/B 3.8 22:04:41 10° NNE 22:09:03 57° ESE 22:11:36 23° S
Cosmos 2360 Rocket 2.5 22:08:52 10° NW 22:14:27 60° WSW 22:18:06 22° S
ALOS 2 3.9 22:11:53 16° ESE 22:14:36 30° ENE 22:18:27 10° N
RESURS DK-1 3.7 22:15:34 10° NW 22:19:05 28° WSW 22:21:10 18° SSW
Cosmos 2333 Rocket 2.5 22:13:51 10° NW 22:19:30 60° WSW 22:23:08 22° S
SL-16 R/B 3.6 22:17:06 10° NW 22:21:49 28° WSW 22:25:47 13° SSW
Cosmos 1300 4.5 22:21:42 10° NW 22:24:32 22° W 22:26:54 12° SW
Atlas Centaur 2 4.3 22:20:27 10° SW 22:25:17 17° SSW 22:25:49 17° S
EXPRESS MD2 1.8 22:24:48 10° W 22:27:04 78° N 22:27:54 32° ENE
OPS 8737 3.9 22:24:56 10° NW 22:27:51 80° SW 22:28:45 41° SSE
SL-08 R/B 4.4 22:25:46 21° S 22:30:01 79° E 22:36:08 10° NNE
BREEZE-M DEB (TANK) 3.8 22:15:33 10° W 22:31:58 90° NNE 22:36:04 10° E
Aureole 3 4.2 22:30:50 17° SW 22:33:37 48° WNW 22:38:09 10° N
Cosmos 1703 Rocket 3.6 22:32:44 28° S 22:35:03 72° E 22:39:31 10° NNE
Cosmos 1833 4.2 22:30:08 12° SSW 22:35:27 85° WNW 22:41:07 10° NNE
DNEPR-1 R/B 4.4 22:29:42 10° NW 22:36:32 77° SW 22:39:56 25° SSE
Meteor 1-4 Rocket 3.3 22:41:49 22° SW 22:43:16 37° WNW 22:46:06 10° N
Cosmos 839 Rocket 4.3 22:37:12 10° NW 22:44:03 60° WSW 22:47:42 25° S
Cosmos 1932 4.4 22:38:31 13° SSW 22:44:18 74° SE 22:50:34 10° NE
Cosmos 2322 3.7 22:40:17 10° NNW 22:46:01 81° ENE 22:49:29 25° SSE
Cosmos 2237 Rocket 3.5 22:41:53 10° NNW 22:47:03 34° NE 22:52:11 10° ESE
BlueWalker 3 3.7 22:50:03 18° ESE 22:50:03 18° ESE 22:51:36 10° E
ATLAS 2AS CENTAUR R/B 3.2 22:45:17 10° NW 22:51:40 44° WSW 22:55:16 24° S
SL-27 R/B 4.3 22:50:58 10° WSW 22:53:09 20° WNW 22:55:22 10° N
Cosmos 2227 Rocket 4.3 22:53:42 10° ESE 22:55:34 12° E 22:57:26 10° ENE
ARIANE 5 R/B 3.5 22:54:58 24° SSW 22:57:04 39° W 23:01:10 10° NNW
PSLV R/B 4.3 22:56:39 10° N 23:00:36 56° WNW 23:02:51 23° SW
Okean 2 4.4 23:00:22 18° SW 23:02:50 39° WNW 23:06:38 10° N
Cosmos 2322 Rocket 4.0 23:02:08 10° NW 23:06:07 20° W 23:09:15 13° SW
Meteor 2-5 Rocket 4.5 23:03:31 24° SSE 23:06:34 43° E 23:12:05 10° NNE
Cosmos 1570 Rocket 4.1 23:01:19 10° NNW 23:06:39 71° WSW 23:09:22 29° S
PSLV R/B 4.2 23:03:35 10° NNE 23:07:36 39° E 23:08:59 30° SE
Cosmos 1703 3.9 23:06:48 32° SE 23:07:45 38° E 23:11:13 10° NNE
Cosmos 1745 Rocket 4.0 23:05:11 24° S 23:09:13 86° W 23:15:38 10° N
SJ 16-02 2.5 23:05:35 12° SW 23:09:17 38° WNW 23:13:21 10° N
COSMOS 2455 3.4 23:08:59 27° SSE 23:11:36 41° ESE 23:17:13 10° NE
Cosmos 2297 Rocket 3.2 23:13:10 24° SE 23:15:19 31° ESE 23:20:14 10° NE
Nadezhda 1 Rocket 4.3 23:11:48 10° NNW 23:18:01 60° W 23:21:42 25° SSW
Cosmos 2181 Rocket 4.5 23:12:14 10° N 23:18:19 52° ENE 23:22:13 22° SE
GP-B 4.3 23:15:33 10° NNW 23:19:33 34° W 23:22:05 19° SW
Cosmos 1408 2.0 23:22:14 59° SW 23:22:41 76° WNW 23:25:41 10° N
USA 281 4.2 23:19:37 20° SSW 23:23:15 33° WSW 23:29:08 10° NW
COSMOS 2428 2.8 23:19:40 10° NNW 23:25:19 66° WSW 23:28:12 29° S
SL-4 R/B 2.1 23:22:10 10° WNW 23:26:15 79° NNE 23:30:33 10° ESE
GEOS 3 Rocket 4.1 23:24:41 10° NE 23:29:35 42° ESE 23:31:28 30° S
ATLAS CENTAUR R/B 3.3 23:29:18 10° W 23:32:15 24° NW 23:35:17 10° NNE
Cosmos 1782 Rocket 4.4 23:28:29 10° NNW 23:32:31 39° W 23:34:15 27° SW
Cosmos 1953 4.4 23:31:57 10° NW 23:34:17 16° W 23:35:58 12° WSW
Cosmos 2219 Rocket 3.4 23:30:16 10° NW 23:35:01 28° WSW 23:37:28 21° SW
Cosmos 1455 4.3 23:34:11 10° NW 23:36:09 14° W 23:37:25 12° WSW
Cosmos 1242 Rocket 4.1 23:35:32 16° W 23:36:28 19° WNW 23:38:33 10° NNW
H-2A R/B 3.9 23:35:29 21° SW 23:37:08 27° W 23:40:49 10° NW
Cosmos 2208 Rocket 4.3 23:32:17 10° NNW 23:37:20 51° WSW 23:39:34 30° SSW
Cosmos 1892 3.7 23:38:13 26° ESE 23:39:03 29° E 23:42:07 10° NNE
Cosmos 158 Rocket 4.3 23:34:39 10° NNW 23:39:50 53° WSW 23:42:07 30° SSW
Cosmos 371 Rocket 3.3 23:38:59 33° S 23:41:03 69° ESE 23:45:51 10° NNE
BREEZE-M DEB (TANK) 4.1 23:39:10 10° W 23:42:51 89° S 23:55:46 10° E
NOSS 8 (E) 4.3 23:45:42 39° SW 23:46:56 84° SE 23:50:03 10° NE
Cosmos 773 Rocket 3.9 23:42:06 10° NNW 23:47:15 81° WSW 23:49:51 30° SSE
Cosmos 2151 Rocket 3.7 23:43:41 10° N 23:48:06 68° E 23:50:03 32° SSE
USA 234 4.4 23:42:19 10° ENE 23:48:30 46° N 23:54:40 10° WNW
ALOS 2 3.7 23:49:16 25° SW 23:50:52 33° W 23:54:53 10° NNW
GENESIS II 4.4 23:49:40 26° WSW 23:51:30 61° NW 23:55:07 10° NE
Cosmos 2263 Rocket 4.3 23:50:49 10° ESE 23:53:13 13° E 23:55:38 10° ENE
Cosmos 1503 Rocket 4.1 23:51:55 31° S 23:54:30 69° ESE 23:59:48 10° NNE
Okean 2 Rocket 3.2 23:50:58 10° N 23:55:27 74° E 23:57:29 32° SSE
